Dewpoint
60 51 46 48 43 32 32 30 14 10 14 7 0 -1 -3 2 12 5 18 24 22 50 53 52 43 42 34 41 45 52 56 48 55 47 54 64 67 64 65 66 65 65 69 70 70 71 71 73 73 73 73 73 73 73 73 74 74 74 73 73 73 73 72 72 72 71 71 71 71 70 70 70 70 70 71 70 70 70 70 69 69 69 69 70 69 69 69 69 69 69 69 69 69 69 68 68 68
41 42 44 43 35 33 27 25 14 9 0 -3 -3 -4 3 7 5 8 27 38 43 50 53 53 53 53 55 54 52 50 55 60 61 61 65 67 66 65 65 67 65 65 69 71 69 69 69 72 73 73 73 73 73 73 73 73 73 73 73 73 73 73 72 72 71 71 71 71 70 70 70 71 70 70 70 70 70 71 71 70 69 69 68 68 68 68 68 69 69 69 69 69 69 68 68 68 69
33 37 34 38 34 34 29 21 5 4 -0 -6 -6 -6 10 2 7 7 23 45 49 52 53 52 53 54 52 51 49 55 58 60 62 62 65 67 65 66 67 67 66 66 69 70 68 68 69 71 73 73 73 73 73 73 73 73 73 73 73 73 73 73 72 72 71 71 70 70 69 70 71 71 70 70 71 70 71 71 71 71 69 69 69 68 68 68 68 69 69 69 69 69 68 68 68 68 68
42 40 30 30 25 26 19 14 8 2 -1 -6 -10 0 -1 0 3 9 8 38 42 50 51 48 46 54 56 48 56 56 56 59 62 63 64 65 65 66 67 67 67 66 69 69 69 68 70 73 73 73 73 73 73 73 73 73 73 73 73 72 72 72 72 71 71 71 70 70 70 71 71 71 71 71 70 70 71 71 71 71 71 69 69 69 69 69 69 69 68 68 68 68 68 68 69 68 67
37 36 40 28 26 16 18 12 1 -2 -3 -8 -10 -3 -4 -1 7 6 9 10 17 36 48 48 47 56 57 57 56 54 57 62 62 63 64 66 66 66 67 67 66 66 67 68 69 69 70 72 73 73 73 73 73 72 72 72 73 72 72 72 71 71 71 71 71 71 70 71 71 71 71 71 70 70 70 71 71 71 71 71 71 71 70 70 70 70 69 70 68 68 69 68 68 69 68 67 67
30 31 35 34 22 24 16 13 8 3 -3 -4 -12 -3 1 0 4 7 9 10 10 14 28 45 42 49 55 59 59 57 64 58 63 64 65 66 66 66 67 67 66 66 67 69 70 70 70 73 73 73 73 73 72 72 72 72 72 72 71 72 72 72 71 71 71 71 71 71 71 71 71 70 70 70 71 71 71 72 72 71 70 70 70 70 70 69 69 68 68 68 69 68 69 69 68 69 69
25 26 22 21 19 17 9 2 -7 -10 -11 -2 -9 2 2 2 7 8 9 8 8 24 23 39 45 51 53 59 60 63 65 65 62 63 66 66 67 67 67 67 66 67 68 69 69 70 71 73 72 73 73 72 73 72 72 72 72 72 71 72 72 72 71 71 72 72 72 71 71 71 71 70 70 71 70 71 71 72 72 71 70 70 70 70 70 69 69 68 68 68 69 70 70 69 69 69 68
33 22 13 13 8 8 8 6 -3 -10 1 3 6 2 1 7 8 9 9 8 19 30 37 41 45 43 58 59 57 63 65 66 65 65 66 67 67 66 66 67 67 68 69 69 69 71 73 73 73 72 73 73 72 72 72 72 72 72 72 72 72 72 72 72 72 72 72 71 70 71 70 70 69 69 70 69 71 72 71 71 71 70 70 70 70 69 69 68 70 70 70 70 69 69 68 68 68
25 23 21 18 11 5 2 1 -2 -1 4 -1 -1 9 30 10 10 10 9 9 9 12 42 44 47 42 52 57 59 63 65 66 65 67 67 67 67 67 68 68 68 69 69 68 70 70 71 73 72 73 72 72 72 72 72 72 72 72 72 72 72 72 72 72 72 72 72 71 71 70 70 70 70 70 70 70 72 71 71 71 71 70 70 70 69 69 69 68 69 69 69 68 68 68 67 68 68
19 20 5 12 3 6 -5 -5 -4 -3 -2 1 0 9 10 13 13 15 14 9 8 13 39 47 50 43 53 59 60 62 64 67 67 67 68 69 69 69 69 69 68 69 68 70 71 71 71 73 72 72 72 72 72 72 72 72 72 72 72 72 72 72 72 72 72 72 72 71 71 71 70 70 70 70 70 71 71 71 70 71 70 70 70 69 69 69 69 69 68 68 68 68 67 67 68 67 68
14 12 19 8 10 1 -3 -8 -9 1 -4 -1 6 10 17 19 19 22 21 15 9 19 51 52 48 51 51 57 60 66 67 67 67 67 69 69 70 70 69 69 69 70 69 72 72 71 71 70 72 72 72 72 72 72 72 72 72 72 72 72 72 72 72 72 72 72 71 71 70 70 70 70 70 70 70 70 71 70 70 71 71 70 69 69 69 69 68 67 67 67 67 67 67 67 67 67 67
15 4 8 3 2 -3 -9 -9 -5 -9 -6 1 5 11 18 24 32 28 23 13 10 25 48 49 48 50 52 57 60 65 67 67 68 69 69 69 69 69 69 68 70 71 72 73 72 72 71 70 71 72 71 72 72 72 72 72 71 71 72 72 72 72 72 71 71 71 71 71 71 71 71 70 70 70 70 70 70 70 70 69 70 69 69 69 69 69 68 68 68 68 68 68 67 67 67 67 66
22 4 3 -3 -2 -5 -7 -2 -12 -3 -4 4 7 10 20 30 39 40 24 9 14 37 47 51 53 50 54 55 61 65 65 68 68 68 69 67 68 68 70 70 71 71 71 70 71 71 71 70 69 69 70 71 71 71 71 70 69 70 70 70 70 71 71 71 70 70 70 71 71 71 71 70 70 70 70 70 70 69 69 69 69 69 69 69 69 69 69 68 68 68 68 68 68 68 68 68 67
16 12 3 -0 4 1 -5 -8 -2 -7 -8 6 8 10 21 34 43 45 10 18 36 43 53 56 53 54 57 60 61 63 65 67 68 69 67 67 68 68 69 70 71 71 70 70 70 70 71 71 71 70 70 70 70 70 70 69 68 69 69 70 70 70 70 70 70 70 70 71 71 71 71 70 70 70 70 70 69 70 69 69 69 69 69 69 69 69 68 68 68 68 68 68 68 68 69 68 68
16 15 12 4 -2 0 -5 -3 -8 -9 1 7 9 10 11 37 42 47 36 37 52 58 58 59 58 53 51 52 58 62 65 67 68 67 67 68 67 68 69 71 70 70 70 70 69 69 69 70 70 70 69 68 70 72 70 69 70 68 68 70 70 70 70 70 70 71 71 71 71 71 70 70 70 70 70 70 70 70 69 69 69 69 69 69 69 69 68 68 68 68 68 68 68 68 68 67 66
20 15 6 10 1 -1 -3 -2 2 -3 4 8 9 10 11 31 46 47 47 53 55 59 57 54 57 55 53 49 56 63 65 67 67 68 67 68 68 68 67 70 69 68 69 69 69 68 69 68 70 70 70 68 70 71 72 70 69 69 69 70 69 69 70 71 71 71 71 70 70 71 70 70 70 69 70 69 69 70 69 68 69 69 69 69 68 69 68 68 69 68 68 69 68 68 66 65 66
21 15 12 9 3 -1 1 -1 -2 -6 6 8 10 9 8 24 46 53 55 55 50 55 57 58 57 58 56 56 58 63 66 67 67 67 67 67 67 66 66 67 67 67 67 68 68 66 67 67 68 68 68 69 70 70 70 68 70 69 68 67 66 69 70 70 70 70 70 70 70 71 70 69 68 70 69 68 69 69 69 70 69 69 69 69 69 68 68 69 69 69 69 69 68 67 66 65 66
17 14 12 7 2 1 -2 -1 -3 7 5 8 10 9 8 12 41 50 55 54 54 55 57 57 58 58 61 59 64 64 66 66 67 66 66 66 65 65 65 66 66 66 67 66 66 67 67 69 67 67 70 68 70 70 69 68 68 69 68 68 69 69 70 70 69 69 68 68 70 70 69 68 68 67 69 68 68 68 69 69 69 68 69 69 69 69 69 69 69 69 69 68 67 67 66 64 63
13 10 9 4 3 1 6 2 6 5 8 10 10 10 8 5 13 44 44 46 51 51 54 55 57 60 62 62 63 65 66 66 66 66 65 65 64 64 64 64 65 65 65 64 65 68 67 67 67 67 68 70 70 69 69 69 68 67 68 68 69 68 70 70 70 69 69 69 69 68 70 69 68 69 69 67 67 67 69 69 68 68 69 69 69 69 69 69 69 69 68 67 67 66 66 61 60
14 13 11 8 6 8 8 9 9 9 11 11 10 9 8 4 13 34 39 38 44 39 45 51 52 57 60 62 62 65 66 65 66 66 65 65 65 64 64 64 64 65 64 64 65 66 67 67 67 67 68 68 70 68 69 68 68 68 70 70 70 70 69 71 70 69 69 69 68 70 71 69 69 68 68 68 67 68 68 68 68 68 68 68 69 69 69 69 69 68 68 67 67 65 61 58 57
14 15 8 2 7 7 4 7 9 11 12 12 10 10 7 5 7 24 26 31 34 34 32 32 39 56 60 61 62 64 65 65 65 66 66 65 65 65 64 64 63 64 64 64 65 66 67 67 68 68 69 68 68 69 68 69 69 69 68 69 71 70 70 69 70 70 70 70 69 71 69 70 69 69 69 69 68 67 67 67 66 67 67 68 69 68 64 64 66 61 63 66 61 59 58 60 60
20 12 5 9 14 7 7 9 11 12 13 10 10 8 6 7 8 13 20 26 20 25 28 34 41 54 59 62 62 63 64 65 65 65 65 65 64 64 65 66 66 65 64 64 64 66 67 66 68 68 67 68 69 69 68 68 69 69 68 68 70 70 69 71 71 69 69 69 69 69 71 71 71 67 67 68 67 68 67 66 67 68 67 67 67 66 64 64 64 61 61 61 61 60 60 61 61
14 14 11 17 14 9 10 11 10 11 9 9 8 8 8 6 6 9 9 16 15 34 45 48 48 53 58 62 62 63 63 64 64 64 64 64 64 64 65 65 66 63 63 64 65 66 67 68 65 67 68 69 67 67 68 68 68 69 68 68 68 70 70 70 69 69 69 68 69 68 68 69 67 65 67 68 68 69 67 67 67 68 67 66 68 67 67 67 64 62 61 64 63 61 59 60 60
11 7 12 12 12 11 11 9 10 10 9 9 9 8 7 6 4 7 6 6 20 42 43 46 48 55 60 62 63 63 63 64 64 64 65 64 64 64 64 64 64 65 64 65 64 65 66 68 66 67 67 67 66 67 66 67 69 69 68 69 68 69 68 68 67 68 68 68 68 68 69 68 67 67 67 68 68 68 66 67 68 67 67 66 68 68 66 65 64 63 64 64 62 61 60 59 58
11 9 13 13 13 12 11 9 9 9 9 8 9 8 6 6 5 8 6 11 43 44 49 48 49 57 60 63 61 63 64 64 64 65 65 63 64 64 65 64 65 65 64 65 65 65 66 67 67 64 65 67 67 67 66 67 68 69 68 68 67 68 67 66 66 68 68 69 70 67 68 67 68 66 66 67 69 67 66 68 68 67 68 67 68 67 67 66 66 64 66 64 64 63 61 61 58
12 9 10 12 11 10 9 8 7 7 6 8 8 7 6 6 7 5 4 36 49 52 51 50 54 58 59 60 63 63 63 64 63 64 63 63 63 64 64 63 64 64 65 65 66 66 67 66 65 65 67 67 67 68 68 68 68 69 68 67 68 68 67 67 68 67 69 68 69 69 68 67 67 67 68 66 67 67 67 69 68 67 67 67 68 68 67 67 67 65 66 65 62 64 62 63 60
11 9 10 11 8 7 7 7 7 7 8 9 7 5 4 5 7 3 7 46 49 48 52 54 56 58 59 59 62 63 62 63 63 63 62 62 62 63 64 64 63 63 65 65 65 66 67 65 64 65 68 68 68 67 68 67 67 67 67 68 67 66 68 67 68 68 68 69 68 69 68 67 65 67 65 66 68 67 67 68 67 67 67 67 68 67 68 67 68 66 66 65 66 65 66 65 61
7 8 8 7 6 6 7 8 8 8 5 8 6 4 5 6 7 2 35 51 48 45 51 54 55 58 58 58 60 62 63 64 62 61 61 61 60 61 64 62 63 64 65 64 64 66 66 65 64 66 67 69 67 67 67 67 67 67 68 67 67 67 68 67 68 68 68 67 68 68 67 67 67 67 67 67 66 66 66 67 67 67 67 68 68 68 68 68 67 66 67 67 68 67 67 66 64
9 8 5 5 5 4 5 4 4 8 4 6 7 3 2 4 2 6 38 50 51 48 51 54 55 57 58 57 59 61 61 64 62 61 61 61 61 62 63 63 64 64 64 65 64 65 66 66 66 66 66 69 69 68 67 67 68 66 67 67 67 67 67 68 67 67 67 67 67 67 67 67 68 67 68 67 66 67 66 68 67 67 68 68 68 69 68 68 68 68 68 68 67 67 66 66 62
10 8 4 3 4 2 3 3 5 6 4 5 4 4 1 0 1 17 48 46 50 51 51 53 55 57 57 58 60 60 63 62 60 60 61 62 62 62 62 63 64 64 63 64 65 64 64 66 66 67 67 66 67 67 68 67 67 67 67 67 67 67 67 66 67 67 67 66 67 68 67 67 67 67 66 67 66 65 66 67 67 67 66 68 68 69 68 68 67 67 68 66 64 65 65 65 64
5 4 5 4 1 -0 0 4 4 3 5 4 3 7 -1 -3 1 32 47 47 46 46 50 53 55 56 56 58 59 61 63 62 61 62 63 64 63 62 62 63 64 64 64 65 64 64 66 65 66 66 68 67 67 67 69 67 66 66 67 66 66 68 67 66 66 67 67 67 67 67 67 67 66 66 66 67 66 65 66 66 66 65 67 68 67 67 67 67 66 67 66 64 65 65 63 63 63
5 5 3 -1 2 -1 4 5 6 2 7 5 3 9 -0 -1 15 41 49 48 46 44 52 54 55 56 56 57 60 61 63 62 62 63 64 64 64 62 62 64 65 65 65 65 65 65 65 66 66 66 67 67 68 67 67 66 67 66 66 66 67 68 67 66 67 67 66 66 66 66 66 66 65 65 65 65 66 65 64 65 65 66 66 66 67 66 66 65 66 65 66 65 64 62 61 62 63
6 4 14 4 -0 -4 2 9 10 10 11 8 4 1 -1 -1 13 40 48 50 48 46 52 55 55 56 56 59 60 61 60 61 61 62 63 64 63 63 63 63 64 66 65 65 64 65 65 65 64 65 67 67 66 67 67 66 67 67 66 67 67 68 67 67 67 67 66 67 66 65 67 67 66 66 65 65 66 65 65 64 65 66 66 65 65 66 65 65 65 64 65 65 65 64 58 59 62
8 3 7 9 2 -2 2 12 13 15 11 8 10 5 5 17 22 42 48 48 47 45 51 54 55 56 56 58 60 60 60 60 60 61 63 64 63 63 64 63 64 66 66 66 66 65 65 63 65 65 66 66 68 68 65 65 64 66 67 66 67 67 68 65 64 64 66 67 67 66 67 66 66 66 66 65 66 65 64 64 65 66 66 66 66 65 65 66 65 65 64 65 64 63 60 60 61
10 11 11 11 8 11 3 10 14 13 13 13 13 13 8 7 28 43 47 49 47 48 50 54 54 55 55 57 58 59 60 60 60 61 63 64 63 63 63 64 64 64 65 66 66 66 66 65 65 65 65 65 66 64 62 62 64 66 66 67 67 65 64 64 63 62 62 64 66 67 66 66 66 66 66 66 66 63 63 63 64 66 66 66 66 65 64 64 65 65 64 64 65 64 63 63 64
6 7 6 8 8 6 9 12 14 15 17 13 12 12 10 12 22 42 49 50 49 50 53 54 54 54 55 55 56 58 59 60 61 61 62 63 62 61 62 62 63 64 65 65 65 66 66 66 65 65 65 64 63 63 62 63 63 64 64 63 62 60 61 61 63 61 62 61 63 63 65 67 66 67 67 67 66 65 65 65 66 65 65 65 64 63 63 63 63 63 63 63 63 64 64 63 64
12 10 11 9 7 8 9 12 17 20 19 16 13 14 10 9 24 45 51 52 52 52 52 53 53 54 53 54 56 57 59 60 60 61 62 62 62 61 62 63 63 63 64 64 65 65 65 65 63 64 64 64 63 62 62 62 61 62 63 62 60 61 60 61 61 61 59 59 60 59 62 61 63 63 64 66 66 64 65 65 66 65 64 64 64 63 64 64 64 64 63 65 62 62 62 64 64
12 11 10 6 8 10 11 14 19 23 29 16 18 14 14 16 36 45 48 51 49 51 52 53 52 52 53 54 56 58 59 60 60 61 61 62 61 62 62 62 62 63 63 63 63 64 64 62 63 62 62 63 62 63 62 62 61 63 62 60 60 58 58 58 59 60 61 61 61 61 61 61 62 62 62 63 62 61 61 60 62 63 63 64 64 64 64 64 64 63 63 62 64 62 62 64 65
19 14 11 11 7 9 17 21 25 26 28 19 15 13 14 32 37 46 47 48 48 50 51 52 52 51 52 53 55 58 59 59 59 60 61 61 61 62 61 62 62 62 63 64 64 64 63 63 62 63 63 63 62 62 62 62 63 64 62 60 59 57 58 60 58 59 59 57 60 60 61 61 60 59 61 60 60 58 58 58 59 60 61 62 61 61 62 62 64 64 63 62 62 63 63 64 65
18 16 18 11 10 9 12 27 25 26 27 23 13 12 31 38 44 46 51 51 53 54 50 53 53 52 53 54 54 57 59 59 59 59 60 60 61 62 61 62 62 62 63 64 63 63 64 64 65 64 64 64 63 63 63 64 64 65 64 63 61 60 59 62 62 60 59 58 58 59 59 60 58 57 57 56 56 58 60 59 59 59 61 62 60 59 60 60 62 65 64 63 63 61 61 62 64
22 24 15 9 13 9 13 22 27 31 28 31 13 20 23 32 33 41 49 52 53 51 52 52 53 52 54 55 55 56 57 59 58 59 60 61 61 61 61 62 62 62 63 62 63 63 64 63 66 65 64 64 64 64 66 66 65 64 64 64 63 62 61 59 58 57 57 57 57 58 58 58 57 56 57 57 56 58 59 59 59 60 60 60 59 58 59 60 58 58 60 60 60 60 59 62 63
17 26 24 19 19 19 16 23 22 23 21 27 24 11 12 23 29 31 46 49 49 49 51 51 53 53 53 53 55 56 59 59 59 59 60 61 61 61 62 62 62 61 61 62 63 63 64 65 66 64 64 64 65 65 65 64 63 61 61 60 58 58 57 57 55 56 55 55 53 57 56 57 57 57 56 56 56 57 58 59 59 58 59 58 58 57 58 59 60 60 60 60 61 61 62 60 62
21 20 22 23 17 21 22 20 20 17 23 26 30 18 12 18 23 37 42 44 47 49 50 51 51 52 52 52 54 54 56 58 59 59 59 62 62 60 60 60 61 62 62 63 62 62 63 63 64 62 60 62 64 64 65 63 62 61 62 60 59 58 56 57 59 58 57 54 56 56 57 59 56 56 57 56 56 56 58 58 59 57 56 57 57 58 57 59 59 60 60 61 59 61 62 59 62
14 30 17 17 17 20 24 21 17 15 24 27 26 17 19 14 21 32 35 38 42 48 49 51 50 53 53 54 55 56 54 58 59 59 59 61 61 59 59 59 61 61 62 63 63 62 63 64 62 61 62 63 64 63 63 63 61 62 62 60 58 56 56 58 59 59 58 56 55 56 56 56 55 54 55 54 55 56 57 57 57 57 53 53 52 53 55 57 59 59 61 62 61 60 62 60 60
20 30 18 17 15 22 21 17 17 20 19 14 17 17 14 14 24 28 27 27 32 36 42 46 48 50 53 55 55 53 55 57 58 58 59 58 59 59 59 59 60 61 62 62 62 62 62 64 63 63 62 62 64 63 64 63 61 61 60 59 58 57 58 58 57 56 55 57 56 56 56 53 54 56 54 54 54 54 55 56 56 54 53 51 49 50 55 56 58 58 58 57 59 60 60 61 61
29 26 21 22 22 23 22 17 14 20 18 14 18 22 14 9 20 18 25 21 27 32 36 39 43 47 50 52 54 54 54 56 57 58 57 58 58 59 59 59 61 61 62 61 61 61 62 63 63 63 63 62 63 64 64 63 61 60 59 60 60 58 58 57 55 55 55 56 56 56 55 53 51 53 55 53 52 51 54 53 52 53 54 53 54 55 56 56 56 56 57 57 59 59 59 59 59
25 23 16 17 17 22 21 19 16 21 13 15 21 26 17 9 21 16 19 25 33 32 33 36 38 39 38 41 47 53 52 54 55 58 56 59 60 60 60 60 61 62 62 61 62 61 61 63 62 62 62 62 62 64 65 63 62 60 59 61 60 59 59 58 56 55 53 54 54 54 54 53 52 51 52 53 54 53 54 54 53 53 55 56 53 52 53 52 53 55 55 57 58 57 56 59 59
23 19 15 15 18 20 20 21 19 15 13 21 21 25 26 10 15 18 29 33 38 39 40 43 44 43 45 46 39 45 51 55 57 57 55 57 57 59 60 60 61 61 63 62 62 61 62 62 61 61 61 60 60 61 62 62 60 60 60 61 60 60 59 57 56 55 54 54 55 54 52 52 52 51 51 51 54 54 54 53 55 54 54 55 53 54 52 51 52 52 53 54 55 56 57 56 56
21 18 15 16 15 15 12 14 14 10 10 22 21 22 20 15 18 28 29 35 40 45 44 47 47 47 49 47 46 48 50 51 58 56 56 57 58 58 58 59 59 61 62 62 61 61 61 61 61 60 60 60 61 60 60 61 61 60 60 60 60 60 59 57 56 55 55 54 53 52 50 50 49 50 50 51 54 54 53 54 53 51 53 55 55 51 53 53 52 51 52 53 54 54 53 55 53
16 15 17 13 9 14 13 9 12 11 20 23 22 26 17 18 20 30 35 41 45 47 48 49 49 50 50 48 49 49 50 49 56 56 56 57 57 57 58 58 58 60 60 61 62 61 61 61 61 60 59 60 61 60 59 59 60 61 60 60 60 59 59 58 56 55 55 53 52 51 50 49 49 52 52 52 53 53 52 52 52 53 52 53 53 54 54 53 51 46 50 51 53 53 53 54 52
14 12 10 14 12 13 12 7 9 12 10 25 25 21 15 15 16 30 41 45 46 47 47 50 51 50 51 49 48 49 50 54 55 55 55 56 56 57 58 58 58 58 59 59 60 61 61 61 60 60 58 58 59 60 59 58 59 60 61 60 59 59 58 57 55 55 55 54 52 51 50 51 50 51 50 53 54 55 54 53 53 52 52 53 53 54 52 53 52 46 48 52 51 51 51 52 52
15 15 12 13 14 16 10 20 16 16 15 19 23 17 21 21 32 33 40 44 46 47 48 50 50 50 50 50 49 49 51 53 54 54 56 57 57 56 56 58 58 59 59 60 59 60 61 61 61 60 59 58 59 60 60 58 59 59 60 60 60 60 58 58 56 55 55 55 53 51 52 52 52 52 53 54 55 54 54 54 54 53 52 51 52 52 51 50 51 49 48 50 49 46 50 51 49
18 13 15 13 17 14 19 25 33 25 16 12 20 21 21 24 23 31 38 41 45 46 46 48 49 50 51 49 48 50 52 53 55 54 55 56 57 57 57 58 58 58 58 59 59 59 60 60 59 59 60 60 60 60 60 59 59 59 60 61 62 61 60 59 57 58 57 56 55 52 52 53 54 54 54 55 56 55 54 54 53 54 54 53 52 51 51 52 51 50 50 50 49 48 48 47 48
15 14 12 17 17 20 20 10 17 13 10 15 21 19 16 16 13 29 35 39 41 45 46 47 49 49 49 48 49 49 51 53 54 55 54 54 56 56 56 58 58 58 58 58 59 59 60 60 60 60 59 59 60 59 59 59 59 59 60 60 60 61 59 59 59 59 58 56 54 53 54 53 54 54 54 55 56 56 55 54 54 54 55 54 53 51 50 51 51 49 50 48 48 49 49 48 48
11 11 15 12 14 12 19 15 14 13 12 10 16 15 14 13 21 25 33 36 42 45 46 46 45 46 46 48 50 51 52 52 52 53 54 55 56 57 57 58 60 58 59 60 60 60 60 61 61 61 60 60 60 59 59 59 59 59 60 60 60 60 59 59 58 58 58 56 54 53 53 53 55 55 53 55 54 53 54 54 53 53 54 54 53 53 53 52 51 51 50 49 51 49 47 49 48
13 14 13 14 19 18 15 16 14 15 11 15 17 14 12 14 17 23 25 33 44 44 45 45 45 46 46 49 49 48 50 52 51 50 51 53 55 55 56 57 57 58 58 58 58 60 60 61 61 60 60 60 59 60 59 58 58 59 60 60 60 59 58 58 58 58 56 55 53 52 51 53 54 52 53 54 52 51 52 53 52 51 52 52 52 53 53 53 53 53 51 49 50 50 48 47 47
15 14 14 15 23 24 20 25 14 13 12 10 12 13 13 24 33 24 25 34 43 45 46 46 46 47 47 48 50 50 49 50 51 51 52 54 55 54 55 57 56 57 58 58 59 59 58 59 60 60 59 59 59 59 58 58 58 58 59 60 59 59 59 58 58 58 57 56 54 53 53 53 51 53 53 53 52 51 49 51 51 50 50 52 52 53 54 54 53 53 53 52 50 49 48 48 47
14 15 17 12 15 14 12 12 19 19 13 14 11 11 17 34 38 38 36 42 42 44 46 47 46 47 48 49 50 50 50 51 52 53 53 54 54 54 55 54 55 57 57 57 57 57 58 58 57 57 56 57 58 56 57 58 58 59 59 59 60 60 59 59 59 58 57 56 55 54 54 52 53 53 53 51 50 51 51 51 50 50 51 51 52 52 53 54 52 53 54 54 53 51 50 50 51